Location: Hobi?a Gr?di?te
(45.4833°N, 22.7833°E)
Time: 20:00:01
(UTC+00:00)

Cosmos 1697 Rocket - Pass Details

Date: 28 January 2023
Orbit: 834 x 842 km, 71.0° (Epoch: 23 March)

Event Time Altitude Azimuth Distance (km) Brightness Sun altitude
Rises 16:56:59 0° 232° (SW) 3,388 7.0 -15.4°
Reaches altitude 10° 16:59:38 10° 241° (WSW) 2,457 6.3 -15.9°
Maximum altitude 17:04:46 35° 306° (NW) 1,335 4.1 -16.8°
Drops below altitude 10° 17:09:55 10° 12° (NNE) 2,466 4.9 -17.7°
Enters shadow 17:11:51 - 19° (NNE) 3,137 5.4 -18.0°
